This is the latest recevied weather packets stored in our database for station/object VE3TEJ. If no packets are shown the sender has not sent any weather packets the latest 10 day(s).
| Time | Temp. | Humidity | Pressure | Rain* | Wind** | Luminosity | Snow |
|---|---|---|---|---|---|---|---|
| 1777756638 | 7.22° C | 41% | 1014.4 hPa | 0 mm | - | - | - |
| 1777756337 | 6.67° C | 44% | 1013.9 hPa | 0 mm | - | - | - |
| 1777756036 | 7.22° C | 39% | 1013.9 hPa | 0 mm | - | - | - |
| 1777755736 | 7.22° C | 45% | 1014 hPa | 0 mm | - | - | - |
| 1777755436 | 7.22° C | 41% | 1014 hPa | 0 mm | - | - | - |
| 1777755136 | 7.22° C | 43% | 1014.2 hPa | 0 mm | - | - | - |
| 1777754837 | 7.22° C | 44% | 1014.1 hPa | 0 mm | - | - | - |
| 1777754536 | 7.22° C | 41% | 1013.8 hPa | 0 mm | - | - | - |
| 1777754236 | 7.22° C | 42% | 1014.1 hPa | 0 mm | - | - | - |
| 1777753937 | 7.78° C | 42% | 1014.1 hPa | 0 mm | - | - | - |
| 1777753637 | 7.22° C | 43% | 1014.3 hPa | 0 mm | - | - | - |
| 1777753337 | 7.22° C | 41% | 1014 hPa | 0 mm | - | - | - |
| 1777753036 | 6.67° C | 47% | 1014.1 hPa | 0 mm | - | - | - |
| 1777752736 | 6.67° C | 44% | 1014.2 hPa | 0 mm | - | - | - |
| 1777752437 | 6.67° C | 44% | 1014.4 hPa | 0 mm | - | - | - |
| 1777752136 | 6.67° C | 43% | 1014.3 hPa | 0 mm | - | - | - |
| 1777751836 | 7.22° C | 45% | 1014.3 hPa | 0 mm | - | - | - |
| 1777751538 | 7.22° C | 46% | 1014.6 hPa | 0 mm | - | - | - |
| 1777751236 | 7.22° C | 47% | 1014.6 hPa | 0 mm | - | - | - |
| 1777750936 | 7.22° C | 44% | 1014.4 hPa | 0 mm | - | - | - |
| 1777750637 | 7.22° C | 46% | 1014.5 hPa | 0 mm | - | - | - |
| 1777750338 | 7.22° C | 45% | 1014.6 hPa | 0 mm | - | - | - |
| 1777750038 | 6.67° C | 45% | 1014.6 hPa | 0 mm | - | - | - |
| 1777749736 | 7.22° C | 44% | 1014.6 hPa | 0 mm | - | - | - |
| 1777749436 | 6.67° C | 45% | 1014.8 hPa | 0 mm | - | - | - |
* Rain latest hour (hover to see other rain measurements)
** Current wind speed in m/s (hover to see current wind gust speed)